Weather History for Marshalltown, IA

Change the Weather History Date:

Tuesday, June 25, 2013

  Actual Average Record
Temperature  
Mean Temperature 77 °F 72 °F  
Max Temperature 87 °F 82 °F 90 °F (2001)
Min Temperature 67 °F 61 °F 41 °F (2004)
Degree Days  
Heating Degree Days 0 0  
Month to date heating degree days 37 28  
Since 1 June heating degree days 37 28  
Since 1 July heating degree days 7016 7012  
Cooling Degree Days 12 7  
Month to date cooling degree days 138 127  
Year to date cooling degree days 199 177  
Since 1 June cooling degree days 138 127  
Growing Degree Days 26 (Base 50)    
Moisture  
Dew Point 71 °F    
Average Humidity 80    
Maximum Humidity 100    
Minimum Humidity 59    
Precipitation  
Precipitation 0.08 in 0.17 in 2.85 in (2005)
Month to date precipitation 4.64 4.32  
Sea Level Pressure  
Sea Level Pressure 29.77 in    
Wind  
Wind Speed 9 mph (SSE)    
Max Wind Speed 21 mph    
Max Gust Speed 26 mph    
Visibility 10 miles    
Events Rain , Thunderstorm    
T = Trace of Precipitation, MM = Missing Value Source: NWS Daily Summary

Daily Weather History Graph

Daily Weather History Graph

Search for Another Location

Airport:

Trip Planner

Search our weather history database for the weather conditions in past years. The results will help you decide how hot, cold, wet, or windy it might be!

Date:

Astronomy

Jun. 25, 2013 Rise Set
Actual Time 5:37 AM CDT 8:51 PM CDT
Civil Twilight 5:02 AM CDT 9:26 PM CDT
Nautical Twilight 4:17 AM CDT 10:10 PM CDT
Astronomical Twilight 3:23 AM CDT 11:04 PM CDT
Moon 10:33 PM CDT 8:20 AM CDT
Length of Visible Light 16h 23m
Length of Day
15h 14m
Waning Gibbous, 92% of the Moon is Illuminated
Jun 25
Waning Gibbous
Jun 29
Last Quarter
Jul 8
New
Jul 15
First Quarter
Jul 22
Full

Hourly Weather History & Observations

Time (CDT) Temp. Heat Index Dew Point Humidity Pressure Visibility Wind Dir Wind Speed Gust Speed Precip Events Conditions
12:53 AM 66.9 °F - 64.9 °F 93% 29.81 in 10.0 mi SSE 9.2 mph - N/A   Clear
1:53 AM 66.9 °F - 66.0 °F 97% 29.80 in 10.0 mi SSE 8.1 mph - N/A   Mostly Cloudy
2:53 AM 66.9 °F - 66.9 °F 100% 29.80 in 10.0 mi ESE 5.8 mph - N/A   Mostly Cloudy
3:53 AM 68.0 °F - 68.0 °F 100% 29.78 in 10.0 mi ESE 6.9 mph - N/A   Mostly Cloudy
4:30 AM 69.8 °F - 69.8 °F 100% 29.81 in 10.0 mi South 9.2 mph - 0.00 in Rain , Thunderstorm Light Rain
4:53 AM 71.1 °F - 70.0 °F 96% 29.78 in 10.0 mi South 12.7 mph - 0.05 in Rain , Thunderstorm Light Thunderstorms and Rain
5:17 AM 71.6 °F - 68.0 °F 88% 29.78 in 8.0 mi WSW 4.6 mph - 0.02 in Rain Light Rain
5:53 AM 69.1 °F - 66.9 °F 93% 29.78 in 10.0 mi WSW 3.5 mph - 0.03 in   Clear
6:53 AM 70.0 °F - 69.1 °F 97% 29.80 in 10.0 mi Calm Calm - N/A   Clear
7:53 AM 70.0 °F - 70.0 °F 100% 29.82 in 10.0 mi ESE 6.9 mph - N/A   Clear
8:53 AM 72.0 °F - 72.0 °F 100% 29.82 in 8.0 mi SE 10.4 mph - N/A   Partly Cloudy
9:53 AM 73.9 °F - 72.0 °F 93% 29.82 in 10.0 mi SSE 9.2 mph - N/A   Mostly Cloudy
10:53 AM 75.9 °F - 73.0 °F 91% 29.81 in 10.0 mi SSE 13.8 mph - N/A   Mostly Cloudy
11:53 AM 80.1 °F 84.5 °F 73.9 °F 81% 29.77 in 10.0 mi SSE 10.4 mph - N/A   Clear
12:53 PM 82.0 °F 89.4 °F 75.9 °F 82% 29.78 in 10.0 mi South 15.0 mph 19.6 mph N/A   Clear
1:53 PM 82.0 °F 87.4 °F 73.0 °F 74% 29.78 in 10.0 mi SSW 15.0 mph - N/A   Clear
2:53 PM 84.9 °F 90.7 °F 72.0 °F 65% 29.77 in 10.0 mi SSW 13.8 mph 19.6 mph N/A   Clear
3:53 PM 84.9 °F 90.7 °F 72.0 °F 65% 29.76 in 10.0 mi SSW 11.5 mph 17.3 mph N/A   Clear
4:53 PM 87.1 °F 93.6 °F 72.0 °F 61% 29.73 in 10.0 mi SSW 9.2 mph - N/A   Clear
5:53 PM 84.9 °F 90.7 °F 72.0 °F 65% 29.73 in 10.0 mi South 8.1 mph - N/A   Clear
6:53 PM 82.9 °F 88.0 °F 72.0 °F 69% 29.73 in 10.0 mi South 6.9 mph - N/A   Partly Cloudy
7:53 PM 81.0 °F 85.2 °F 72.0 °F 74% 29.73 in 10.0 mi South 6.9 mph - N/A   Clear
8:53 PM 80.1 °F 83.8 °F 72.0 °F 76% 29.73 in 10.0 mi SSE 8.1 mph - N/A   Scattered Clouds
9:53 PM 79.0 °F - 73.9 °F 84% 29.73 in 10.0 mi SSE 10.4 mph - N/A   Mostly Cloudy
10:53 PM 78.1 °F - 75.0 °F 90% 29.73 in 10.0 mi SSE 9.2 mph - N/A   Scattered Clouds
11:53 PM 77.0 °F - 75.0 °F 94% 29.70 in 10.0 mi SSE 8.1 mph - N/A   Scattered Clouds